Time,TemperatureF,DewpointF,PressureIn,WindDirection,WindDirectionDegrees,WindSpeedMPH,WindSpeedGustMPH,Humidity,HourlyPrecipIn,Conditions,Clouds,dailyrainin,SoftwareType,DateUTC
2013-05-02 00:09:00,49.4,49.0,30.22,North,357,1.0,-999.0,100,-99.99,,,0.00,weatherlink.com 1.10,2013-05-02 04:09:00,
2013-05-02 00:24:00,49.2,49.0,30.23,NNW,343,1.0,-999.0,100,-99.99,,,0.00,weatherlink.com 1.10,2013-05-02 04:24:00,
2013-05-02 00:39:00,49.1,49.0,30.22,NW,315,0.0,-999.0,100,-99.99,,,0.00,weatherlink.com 1.10,2013-05-02 04:39:00,
2013-05-02 00:54:00,49.1,49.0,30.23,North,0,0.0,-999.0,100,-99.99,,,0.00,weatherlink.com 1.10,2013-05-02 04:54:00,
2013-05-02 01:09:00,48.9,49.0,30.22,North,0,3.0,-999.0,100,-99.99,,,0.00,weatherlink.com 1.10,2013-05-02 05:09:00,
2013-05-02 01:24:00,48.8,49.0,30.22,NNE,24,0.0,-999.0,100,-99.99,,,0.00,weatherlink.com 1.10,2013-05-02 05:24:00,
2013-05-02 01:39:00,48.8,49.0,30.22,North,8,1.0,-999.0,100,-99.99,,,0.00,weatherlink.com 1.10,2013-05-02 05:39:00,
2013-05-02 01:54:00,48.8,49.0,30.21,North,0,0.0,-999.0,100,-99.99,,,0.00,weatherlink.com 1.10,2013-05-02 05:54:00,
2013-05-02 02:09:00,48.8,49.0,30.21,NNW,346,2.0,-999.0,100,-99.99,,,0.00,weatherlink.com 1.10,2013-05-02 06:09:00,
2013-05-02 02:24:00,48.8,49.0,30.20,NNW,337,0.0,-999.0,100,-99.99,,,0.00,weatherlink.com 1.10,2013-05-02 06:24:00,
2013-05-02 02:39:00,48.8,49.0,30.19,NNE,27,0.0,-999.0,100,-99.99,,,0.01,weatherlink.com 1.10,2013-05-02 06:39:00,
2013-05-02 02:54:00,48.8,49.0,30.19,NNE,27,0.0,-999.0,100,-99.99,,,0.01,weatherlink.com 1.10,2013-05-02 06:54:00,
2013-05-02 03:10:00,48.6,49.0,30.18,North,359,0.0,-999.0,100,-99.99,,,0.01,weatherlink.com 1.10,2013-05-02 07:10:00,
2013-05-02 03:25:00,48.6,49.0,30.18,North,359,0.0,-999.0,100,-99.99,,,0.01,weatherlink.com 1.10,2013-05-02 07:25:00,
2013-05-02 03:40:00,48.5,49.0,30.17,North,350,0.0,-999.0,100,-99.99,,,0.01,weatherlink.com 1.10,2013-05-02 07:40:00,
2013-05-02 03:55:00,48.3,48.0,30.17,North,0,0.0,-999.0,100,-99.99,,,0.01,weatherlink.com 1.10,2013-05-02 07:55:00,
2013-05-02 04:10:00,48.3,48.0,30.18,NNW,342,0.0,-999.0,100,-99.99,,,0.01,weatherlink.com 1.10,2013-05-02 08:10:00,
2013-05-02 04:25:00,48.2,48.0,30.17,North,354,0.0,-999.0,100,-99.99,,,0.01,weatherlink.com 1.10,2013-05-02 08:25:00,
2013-05-02 04:40:00,48.0,48.0,30.18,North,359,0.0,-999.0,100,-99.99,,,0.01,weatherlink.com 1.10,2013-05-02 08:40:00,
2013-05-02 04:55:00,47.9,48.0,30.18,North,359,0.0,-999.0,100,-99.99,,,0.01,weatherlink.com 1.10,2013-05-02 08:55:00,
2013-05-02 05:10:00,47.9,48.0,30.18,North,359,0.0,-999.0,100,-99.99,,,0.01,weatherlink.com 1.10,2013-05-02 09:10:00,
2013-05-02 05:25:00,47.6,48.0,30.18,North,359,2.0,-999.0,100,-99.99,,,0.01,weatherlink.com 1.10,2013-05-02 09:25:00,
2013-05-02 05:40:00,47.4,47.0,30.18,NNW,347,0.0,-999.0,100,-99.99,,,0.01,weatherlink.com 1.10,2013-05-02 09:40:00,
2013-05-02 05:55:00,47.3,47.0,30.19,North,356,0.0,-999.0,100,-99.99,,,0.01,weatherlink.com 1.10,2013-05-02 09:55:00,
2013-05-02 06:10:00,46.8,47.0,30.19,North,354,1.0,-999.0,100,-99.99,,,0.01,weatherlink.com 1.10,2013-05-02 10:10:00,
2013-05-02 06:25:00,46.4,46.0,30.19,North,0,2.0,-999.0,100,-99.99,,,0.01,weatherlink.com 1.10,2013-05-02 10:25:00,
2013-05-02 06:40:00,46.2,46.0,30.20,NE,51,3.0,-999.0,100,-99.99,,,0.01,weatherlink.com 1.10,2013-05-02 10:40:00,
2013-05-02 06:55:00,46.1,46.0,30.20,North,0,0.0,-999.0,100,-99.99,,,0.01,weatherlink.com 1.10,2013-05-02 10:55:00,
2013-05-02 07:10:00,46.1,46.0,30.21,North,0,0.0,-999.0,100,-99.99,,,0.01,weatherlink.com 1.10,2013-05-02 11:10:00,
2013-05-02 07:25:00,46.1,46.0,30.21,NNE,21,0.0,-999.0,100,-99.99,,,0.01,weatherlink.com 1.10,2013-05-02 11:25:00,
2013-05-02 07:40:00,46.1,46.0,30.22,NE,38,0.0,-999.0,100,-99.99,,,0.01,weatherlink.com 1.10,2013-05-02 11:40:00,
2013-05-02 07:55:00,46.1,46.0,30.23,North,0,0.0,-999.0,100,-99.99,,,0.01,weatherlink.com 1.10,2013-05-02 11:55:00,
2013-05-02 08:10:00,46.2,46.0,30.23,ENE,61,0.0,-999.0,100,-99.99,,,0.01,weatherlink.com 1.10,2013-05-02 12:10:00,
2013-05-02 08:25:00,46.4,46.0,30.24,North,352,1.0,-999.0,100,-99.99,,,0.01,weatherlink.com 1.10,2013-05-02 12:25:00,
2013-05-02 08:40:00,46.4,46.0,30.24,North,354,0.0,-999.0,100,-99.99,,,0.01,weatherlink.com 1.10,2013-05-02 12:40:00,
2013-05-02 08:55:00,46.5,47.0,30.24,NNW,343,0.0,-999.0,100,-99.99,,,0.01,weatherlink.com 1.10,2013-05-02 12:55:00,
2013-05-02 09:10:00,46.7,47.0,30.25,NNW,343,0.0,-999.0,100,-99.99,,,0.01,weatherlink.com 1.10,2013-05-02 13:10:00,
2013-05-02 09:25:00,46.8,47.0,30.25,ENE,73,0.0,-999.0,100,-99.99,,,0.01,weatherlink.com 1.10,2013-05-02 13:25:00,
2013-05-02 09:40:00,47.3,47.0,30.25,ENE,62,0.0,-999.0,100,-99.99,,,0.01,weatherlink.com 1.10,2013-05-02 13:40:00,
2013-05-02 09:55:00,47.4,47.0,30.25,ENE,61,0.0,-999.0,100,-99.99,,,0.01,weatherlink.com 1.10,2013-05-02 13:55:00,
2013-05-02 10:10:00,47.4,47.0,30.25,ENE,61,0.0,-999.0,100,-99.99,,,0.01,weatherlink.com 1.10,2013-05-02 14:10:00,
2013-05-02 10:25:00,47.7,48.0,30.25,ENE,61,0.0,-999.0,100,-99.99,,,0.01,weatherlink.com 1.10,2013-05-02 14:25:00,
2013-05-02 10:40:00,47.9,48.0,30.25,ENE,75,0.0,-999.0,100,-99.99,,,0.01,weatherlink.com 1.10,2013-05-02 14:40:00,
2013-05-02 10:55:00,48.2,48.0,30.26,ENE,75,0.0,-999.0,100,-99.99,,,0.01,weatherlink.com 1.10,2013-05-02 14:55:00,
2013-05-02 11:10:00,48.0,48.0,30.26,North,0,0.0,-999.0,100,-99.99,,,0.01,weatherlink.com 1.10,2013-05-02 15:10:00,
2013-05-02 11:25:00,48.6,49.0,30.26,North,352,0.0,-999.0,100,-99.99,,,0.01,weatherlink.com 1.10,2013-05-02 15:25:00,
2013-05-02 11:40:00,49.6,50.0,30.25,North,352,0.0,-999.0,100,-99.99,,,0.01,weatherlink.com 1.10,2013-05-02 15:40:00,
2013-05-02 11:55:00,49.6,50.0,30.26,SW,232,0.0,-999.0,100,-99.99,,,0.01,weatherlink.com 1.10,2013-05-02 15:55:00,
2013-05-02 12:10:00,49.8,50.0,30.25,WSW,248,0.0,-999.0,100,-99.99,,,0.01,weatherlink.com 1.10,2013-05-02 16:10:00,
2013-05-02 12:25:00,50.8,51.0,30.25,WSW,250,0.0,-999.0,100,-99.99,,,0.01,weatherlink.com 1.10,2013-05-02 16:25:00,
2013-05-02 12:41:00,51.4,51.0,30.25,NNW,329,0.0,-999.0,100,-99.99,,,0.01,weatherlink.com 1.10,2013-05-02 16:41:00,
2013-05-02 12:56:00,51.7,52.0,30.24,NW,318,0.0,-999.0,100,-99.99,,,0.01,weatherlink.com 1.10,2013-05-02 16:56:00,
2013-05-02 13:11:00,51.3,51.0,30.24,NNE,17,0.0,-999.0,100,-99.99,,,0.01,weatherlink.com 1.10,2013-05-02 17:11:00,
2013-05-02 13:26:00,51.4,51.0,30.25,North,357,0.0,-999.0,100,-99.99,,,0.01,weatherlink.com 1.10,2013-05-02 17:26:00,
2013-05-02 13:41:00,51.4,51.0,30.24,North,357,0.0,-999.0,100,-99.99,,,0.01,weatherlink.com 1.10,2013-05-02 17:41:00,
2013-05-02 13:56:00,51.3,51.0,30.25,North,357,0.0,-999.0,100,-99.99,,,0.01,weatherlink.com 1.10,2013-05-02 17:56:00,
2013-05-02 14:11:00,51.0,51.0,30.25,ENE,71,0.0,-999.0,100,-99.99,,,0.01,weatherlink.com 1.10,2013-05-02 18:11:00,
2013-05-02 14:26:00,51.0,51.0,30.25,ENE,71,0.0,-999.0,100,-99.99,,,0.01,weatherlink.com 1.10,2013-05-02 18:26:00,
2013-05-02 14:41:00,51.3,51.0,30.24,ENE,71,0.0,-999.0,100,-99.99,,,0.01,weatherlink.com 1.10,2013-05-02 18:41:00,
2013-05-02 14:56:00,51.3,51.0,30.24,North,353,0.0,-999.0,100,-99.99,,,0.01,weatherlink.com 1.10,2013-05-02 18:56:00,
2013-05-02 15:11:00,51.4,51.0,30.24,North,353,0.0,-999.0,100,-99.99,,,0.01,weatherlink.com 1.10,2013-05-02 19:11:00,
2013-05-02 15:26:00,51.4,51.0,30.24,North,4,0.0,-999.0,100,-99.99,,,0.01,weatherlink.com 1.10,2013-05-02 19:26:00,
2013-05-02 15:41:00,51.9,52.0,30.24,North,0,0.0,-999.0,100,-99.99,,,0.01,weatherlink.com 1.10,2013-05-02 19:41:00,
2013-05-02 15:56:00,51.9,52.0,30.22,NW,318,0.0,-999.0,100,-99.99,,,0.01,weatherlink.com 1.10,2013-05-02 19:56:00,
2013-05-02 16:11:00,51.7,52.0,30.22,WSW,241,0.0,-999.0,100,-99.99,,,0.01,weatherlink.com 1.10,2013-05-02 20:11:00,
2013-05-02 16:26:00,51.9,52.0,30.21,NNW,347,0.0,-999.0,100,-99.99,,,0.01,weatherlink.com 1.10,2013-05-02 20:26:00,
2013-05-02 16:41:00,52.2,52.0,30.21,NNW,347,0.0,-999.0,100,-99.99,,,0.01,weatherlink.com 1.10,2013-05-02 20:41:00,
2013-05-02 16:56:00,52.2,52.0,30.21,NW,325,0.0,-999.0,100,-99.99,,,0.01,weatherlink.com 1.10,2013-05-02 20:56:00,
2013-05-02 17:11:00,52.0,52.0,30.20,NNW,328,0.0,-999.0,100,-99.99,,,0.01,weatherlink.com 1.10,2013-05-02 21:11:00,
2013-05-02 17:26:00,52.0,52.0,30.20,NNE,24,0.0,-999.0,100,-99.99,,,0.01,weatherlink.com 1.10,2013-05-02 21:26:00,
2013-05-02 17:41:00,51.7,52.0,30.21,NW,311,0.0,-999.0,100,-99.99,,,0.01,weatherlink.com 1.10,2013-05-02 21:41:00,
2013-05-02 17:56:00,51.6,52.0,30.20,NW,311,0.0,-999.0,100,-99.99,,,0.01,weatherlink.com 1.10,2013-05-02 21:56:00,
2013-05-02 18:11:00,51.4,51.0,30.20,NNW,330,0.0,-999.0,100,-99.99,,,0.01,weatherlink.com 1.10,2013-05-02 22:11:00,
2013-05-02 18:26:00,51.4,51.0,30.21,North,0,0.0,-999.0,100,-99.99,,,0.01,weatherlink.com 1.10,2013-05-02 22:26:00,
2013-05-02 18:41:00,51.3,51.0,30.20,NNE,31,0.0,-999.0,100,-99.99,,,0.01,weatherlink.com 1.10,2013-05-02 22:41:00,
2013-05-02 18:56:00,51.0,51.0,30.20,North,353,0.0,-999.0,100,-99.99,,,0.01,weatherlink.com 1.10,2013-05-02 22:56:00,
2013-05-02 19:11:00,50.8,51.0,30.20,SW,227,0.0,-999.0,100,-99.99,,,0.01,weatherlink.com 1.10,2013-05-02 23:11:00,
2013-05-02 19:26:00,50.8,51.0,30.20,SW,227,0.0,-999.0,100,-99.99,,,0.01,weatherlink.com 1.10,2013-05-02 23:26:00,
2013-05-02 19:41:00,50.7,51.0,30.20,ESE,120,0.0,-999.0,100,-99.99,,,0.01,weatherlink.com 1.10,2013-05-02 23:41:00,
2013-05-02 19:56:00,50.7,51.0,30.20,NNE,32,0.0,-999.0,100,-99.99,,,0.01,weatherlink.com 1.10,2013-05-02 23:56:00,
2013-05-02 20:11:00,50.7,51.0,30.20,NNE,16,0.0,-999.0,100,-99.99,,,0.01,weatherlink.com 1.10,2013-05-03 00:11:00,
2013-05-02 20:26:00,50.4,50.0,30.21,North,1,0.0,-999.0,100,-99.99,,,0.01,weatherlink.com 1.10,2013-05-03 00:26:00,
2013-05-02 20:41:00,50.4,50.0,30.21,North,1,0.0,-999.0,100,-99.99,,,0.01,weatherlink.com 1.10,2013-05-03 00:41:00,
2013-05-02 20:57:00,50.2,50.0,30.21,NNW,346,0.0,-999.0,100,-99.99,,,0.01,weatherlink.com 1.10,2013-05-03 00:57:00,
2013-05-02 21:12:00,50.1,50.0,30.21,NNE,16,0.0,-999.0,100,-99.99,,,0.01,weatherlink.com 1.10,2013-05-03 01:12:00,
2013-05-02 21:27:00,49.9,50.0,30.22,North,10,0.0,-999.0,100,-99.99,,,0.01,weatherlink.com 1.10,2013-05-03 01:27:00,
2013-05-02 21:42:00,49.8,50.0,30.22,NE,34,1.0,-999.0,100,-99.99,,,0.01,weatherlink.com 1.10,2013-05-03 01:42:00,
2013-05-02 21:57:00,49.8,50.0,30.22,NNE,18,0.0,-999.0,100,-99.99,,,0.01,weatherlink.com 1.10,2013-05-03 01:57:00,
2013-05-02 22:12:00,49.6,50.0,30.22,NW,326,0.0,-999.0,100,-99.99,,,0.01,weatherlink.com 1.10,2013-05-03 02:12:00,
2013-05-02 22:27:00,49.5,50.0,30.21,NNW,343,0.0,-999.0,100,-99.99,,,0.01,weatherlink.com 1.10,2013-05-03 02:27:00,
2013-05-02 22:42:00,49.5,50.0,30.21,North,359,0.0,-999.0,100,-99.99,,,0.01,weatherlink.com 1.10,2013-05-03 02:42:00,
2013-05-02 22:57:00,49.4,49.0,30.21,North,0,0.0,-999.0,100,-99.99,,,0.01,weatherlink.com 1.10,2013-05-03 02:57:00,
2013-05-02 23:12:00,49.2,49.0,30.21,NNW,335,1.0,-999.0,100,-99.99,,,0.01,weatherlink.com 1.10,2013-05-03 03:12:00,
2013-05-02 23:27:00,49.2,49.0,30.20,North,354,0.0,-999.0,100,-99.99,,,0.01,weatherlink.com 1.10,2013-05-03 03:27:00,
2013-05-02 23:42:00,49.1,49.0,30.20,NNE,14,0.0,-999.0,100,-99.99,,,0.01,weatherlink.com 1.10,2013-05-03 03:42:00,
2013-05-02 23:57:00,48.9,49.0,30.20,ENE,59,0.0,-999.0,100,-99.99,,,0.01,weatherlink.com 1.10,2013-05-03 03:57:00,